Home   Weather   Cochabamba   Past weeks

Flag for Bolivia Past Weather in Cochabamba, Bolivia — Yesterday and Last 2 Weeks

Now
73 °F

Passing clouds.


Feels Like: 76 °F
Forecast: N/A
Wind: 5 mph from East

Location: Cochabamba Airport

Current Time: Sep 30, 2016 at 7:52:56 PM

Latest Report: Sep 30, 2016 at 7:00 PM


Visibility: N/A

Pressure: 30.09 "Hg (22.33 "Hg at 2584m altitude)

Humidity: 27%

Dew Point: 37 °F

Location of CochabambaLocation

Past Weather in Cochabamba — Graph

°F

Cochabamba Temperature Yesterday

Maximum temperature yesterday: 86 °F (at 2:00 PM)
Minimum temperature yesterday: 52 °F (at 6:00 AM)
Average temperature yesterday: 68 °F

High & Low Weather Summary for the Past Weeks

 TemperatureHumidityPressure
High86 °F (Sep 16, 5:00 PM)88% (Sep 21, 3:00 AM)30.48 "Hg (Sep 21, 3:00 AM)
Low46 °F (Sep 22, 6:00 AM)8% (Sep 29, 2:00 PM)30.07 "Hg (Sep 30, 3:00 PM)
Average66 °F39%30.28 "Hg
* Reported Sep 15 6:00 PM — Sep 30 6:00 PM, Cochabamba, Weather by CustomWeather, © 2016

Note: Actual official high and low records may vary slightly from our data, if they occured in-between our weather recording intervals... More about our weather records

Advertising

Cochabamba Weather History for the Previous 24 Hours

Scroll right to see more
 ConditionsComfort  
Time TempWeatherWind HumidityBarometerVisibility
6:00 PM
Fri, Sep 30
75 °FScattered clouds.3 mph27%30.07 "HgN/A
5:00 PM77 °FScattered clouds.13 mph26%30.07 "HgN/A
4:00 PM81 °FScattered clouds.12 mph23%30.07 "HgN/A
3:00 PM82 °FBroken clouds.12 mph13%30.07 "HgN/A
2:00 PM84 °FBroken clouds.8 mph12%30.12 "HgN/A
1:00 PM82 °FPassing clouds.5 mph15%30.18 "HgN/A
12:00 PM79 °FPassing clouds.No wind24%30.21 "HgN/A
11:00 AM75 °FPassing clouds.No wind29%30.27 "HgN/A
10:00 AM73 °FPassing clouds.No wind31%30.30 "Hg6 mi
9:00 AM68 °FPassing clouds.No wind40%30.30 "Hg5 mi
8:00 AM63 °FPassing clouds.No wind49%30.27 "Hg5 mi
7:00 AM57 °FClear.No wind59%30.24 "Hg4 mi
6:00 AM55 °FClear.No wind63%30.24 "Hg6 mi
5:00 AM59 °FPassing clouds.3 mph55%30.21 "HgN/A
4:00 AM61 °FPassing clouds.5 mph48%30.21 "HgN/A
3:00 AM63 °FPassing clouds.5 mph45%30.21 "HgN/A
2:00 AM64 °FPassing clouds.5 mph46%30.24 "HgN/A
1:00 AM64 °FPassing clouds.5 mph46%30.24 "HgN/A
12:00 AM64 °FPassing clouds.6 mph43%30.24 "HgN/A
11:00 PM
Thu, Sep 29
66 °FPassing clouds.7 mph40%30.24 "HgN/A
10:00 PM66 °FPassing clouds.5 mph40%30.21 "HgN/A
9:00 PM68 °FPassing clouds.10 mph35%30.21 "HgN/A
8:00 PM70 °FPassing clouds.3 mph35%30.18 "HgN/A
7:00 PM73 °FPassing clouds.8 mph27%30.12 "HgN/A
Weather by CustomWeather, © 2016

See weather overviewHow to use our weather pages